SCP
0 0 0 0 0 0 0 0 0 0 0 0 0 0 0 0 0 0 0 0 0 0 0 0 0 0 0 0 0 0 0 0 0 0 0 0 0 0 0 0 0 0 0
0 0 0 0 0 0 0 0 0 0 0 0 0 0 0 0 0 0 0 0 0 0 0 0 0 0 0 0 0 0 0 0 0 0 0 0 0 0 0 0 0 0 0
0 0 0 0 0 0 0 0 0 0 0 0 0 0 0 0 0 0 0 0 0 0 0 0 0 0 0 0 0 0 0 0 0 0 0 0 0 0 0 0 0 0 0
0 0 0 0 0 0 0 0 0 0 0 0 0 0 0 0 0 0 0 0 0 0 0 0 0 0 0 0 0 0 0 0 0 0 0 0 0 0 0 0 0 0 0
0 0 0 0 0 0 0 0 0 0 0 0 0 0 0 0 0 0 0 0 0 0 0 0 0 0 0 0 0 0 0 0 0 0 0 0 0 0 0 0 0 0 0
0 0 0 0 0 0 0 0 0 0 0 0 0 0 0 0 0 0 0 0 0 0 0 0 0 0 0 0 0 0 0 0 0 0 0 0 0 0 0 0 0 0 0
0 0 0 0 0 0 0 0 0 0 0 0 0 0 0 0 0 0 0 0 0 0 0 0 0 0 0 0 0 0 0 0 0 0 0 0 0 0 0 0 0 0 0
0 0 0 0 0 0 0 0 0 0 0 0 0 0 0 0 0 0 0 0 0 0 0 0 0 0 0 0 0 0 0 0 0 0 0 0 0 0 0 0 0 0 0
0 0 0 0 0 0 0 0 0 0 0 0 0 0 0 0 0 0 0 0 0 0 0 0 0 0 0 0 0 0 0 0 0 0 0 0 0 0 0 0 0 0 0
0 0 0 0 0 0 0 0 0 0 0 0 0 0 0 0 0 0 0 0 0 0 0 0 0 0 0 0 0 0 0 0 0 0 0 0 0 0 0 0 0 0 0
0 0 0 0 0 0 0 0 0 0 0 0 0 0 0 0 0 0 0 0 0 0 0 0 0 0 0 0 0 0 0 0 0 0 0 0 0 0 0 0 0 0 0
0 0 0 0 0 0 0 0 0 0 0 0 0 0 0 0 0 0 0 0 0 0 0 0 0 0 0 0 0 0 0 0 0 0 0 0 0 0 0 0 0 0 0
0 0 0 0 0 0 0 0 0 0 0 0 0 0 0 0 0 0 0 0 0 0 0 0 0 0 0 0 0 0 0 0 0 0 0 0 0 0 0 0 0 0 0
0 0 0 0 0 0 0 0 0 0 0 0 0 0 0 0 0 0 0 0 0 0 0 0 0 0 0 0 0 0 0 0 0 0 0 0 0 0 0 0 0 0 0
0 0 0 0 0 0 0 0 0 0 0 0 0 0 0 0 0 0 0 0 0 0 0 0 0 0 0 0 0 0 0 0 0 0 0 0 0 0 0 0 0 0 0
0 0 0 0 0 0 0 0 0 0 0 0 0 0 0 0 0 0 0 0 0 0 0 0 0 0 0 0 0 0 0 0 0 0 0 0 0 0 0 0 0 0 0
0 0 0 0 0 0 0 0 0 0 0 0 0 0 0 0 0 0 0 0 0 0 0 0 0 0 0 0 0 0 0 0 0 0 0 0 0 0 0 0 0 0 0
0 0 0 0 0 0 0 0 0 0 0 0 0 0 0 0 0 0 0 0 0 0 0 0 0 0 0 0 0 0 0 0 0 0 0 0 0 0 0 0 0 0 0
0 0 0 0 0 0 0 0 0 0 0 0 0 0 0 0 0 0 0 0 0 0 0 0 0 0 0 0 0 0 0 0 0 0 0 0 0 0 0 0 0 0 0
0 0 0 0 0 0 0 0 0 0 0 0 0 0 0 0 0 0 0 0 0 0 0 0 0 0 0 0 0 0 0 0 0 0 0 0 0 0 0 0 0 0 0
0 0 0 0 0 0 0 0 0 0 0 0 0 0 0 0 0 0 0 0 0 0 0 0 0 0 0 0 0 0 0 0 0 0 0 0 0 0 0 0 0 0 0
0 0 0 0 0 0 0 0 0 0 0 0 0 0 0 0 0 0 0 0 0 0 0 0 0 0 0 0 0 0 0 0 0 0 0 0 0 0 0 0 0 0 0
0 0 0 0 0 0 0 0 0 0 0 0 0 0 0 0 0 0 0 0 0 0 0 0 0 0 0 0 0 0 0 0 0 0 0 0 0 0 0 0 0 0 0
0 0 0 0 0 0 0 0 0 0 0 0 0 0 0 0 0 0 0 0 0 0 0 0 0 0 0 0 0 0 0 0 0 0 0 0 0 0 0 0 0 0 0
0 0 0 0 0 0 0 0 0 0 0 0 0 0 0 0 0 0 0 0 0 0 0 0 0 0 0 0 0 0 0 0 0 0 0 0 0 0 0 0 0 0 0
0 0 0 0 0 0 0 0 0 0 0 0 0 0 0 0 0 0 0 0 0 0 0 0 0 0 0 0 0 0 0 0 0 0 0 0 0 0 0 0 0 0 0
Wind_Speed
3 3 2 2 2 1 2 2 2 2 1 1 1 1 1 1 1 0 1 1 1 2 1 1 1 1 1 1 0 0 1 1 1 1 0 1 1 1 2 2 3 3 3
2 1 1 1 2 2 2 2 2 2 2 2 2 2 2 1 1 1 1 2 1 2 2 1 1 1 1 1 0 1 1 1 2 1 1 0 1 1 2 2 2 3 2
2 1 1 1 1 1 1 2 3 2 2 2 2 2 2 2 1 1 2 2 2 2 1 1 1 0 1 1 1 0 1 1 1 1 1 1 1 1 1 1 2 1 2
1 1 1 1 1 1 2 2 3 2 2 2 1 2 1 1 1 2 2 2 2 1 1 0 1 0 1 1 1 1 1 1 1 1 1 1 1 1 2 2 1 1 1
1 1 1 1 1 1 2 2 3 2 3 3 2 2 1 1 1 2 2 3 2 2 1 1 1 2 2 1 0 0 0 1 1 1 2 1 1 1 2 2 2 1 1
2 1 1 1 1 1 2 2 3 2 3 3 3 3 2 1 1 1 1 3 3 2 2 1 2 2 3 2 1 1 1 1 1 1 1 2 2 2 2 2 2 2 1
1 1 1 1 1 1 2 3 3 2 3 4 4 3 3 3 3 3 3 3 4 3 2 2 1 1 2 2 3 3 2 2 3 2 2 2 2 2 3 3 2 2 2
1 1 0 1 1 1 2 3 3 3 3 3 4 4 3 4 5 5 5 4 4 4 3 2 2 1 1 1 2 3 3 2 3 3 2 1 0 1 2 3 3 2 1
3 3 1 1 1 2 3 3 3 3 4 3 4 4 4 4 6 7 5 3 4 4 3 2 2 1 1 1 1 2 2 2 3 4 4 3 2 1 2 2 2 2 1
3 3 2 2 2 3 3 3 3 3 4 4 4 5 5 5 6 7 6 3 4 4 3 3 3 3 2 1 1 1 2 3 2 2 3 3 3 3 3 3 3 3 2
3 3 3 3 3 3 3 3 3 3 4 5 5 5 4 5 5 7 6 3 3 3 3 2 2 4 4 4 3 2 3 3 3 3 3 3 3 2 2 2 2 3 3
3 4 4 4 4 3 3 3 3 3 4 5 5 5 4 4 4 6 8 7 5 3 3 2 2 5 5 5 4 5 5 3 2 2 2 3 3 3 2 2 2 2 2
4 4 4 4 4 3 3 3 3 3 3 4 3 4 4 3 3 6 7 8 7 4 3 4 4 5 5 5 7 7 5 3 2 3 3 3 3 3 3 2 2 2 1
5 5 4 4 4 4 3 3 3 3 3 4 4 4 4 3 3 2 3 4 5 4 4 4 4 5 5 6 5 5 4 4 4 4 3 3 2 3 3 3 3 2 1
5 5 5 4 4 3 3 3 4 4 4 4 4 4 4 5 5 5 4 4 4 4 3 3 3 3 4 4 4 4 4 4 4 4 4 4 3 3 3 3 3 2 3
5 4 4 4 4 3 4 5 6 7 10 10 10 8 7 8 8 8 9 8 8 7 5 4 5 5 6 6 5 5 5 5 5 4 4 4 4 4 4 3 3 3 3
5 5 4 4 4 4 4 4 5 7 9 11 12 12 11 10 10 10 10 9 9 7 5 6 6 6 5 5 5 4 4 4 4 4 5 5 5 4 4 4 4 3 4
6 6 6 4 4 4 5 5 5 6 6 6 7 10 11 11 10 10 10 6 5 6 5 6 6 5 5 5 4 4 4 4 4 4 4 4 5 5 4 4 4 4 4
6 5 5 5 5 5 6 6 6 6 6 6 5 5 8 9 9 9 7 5 6 6 6 6 6 5 5 5 5 4 4 4 4 4 4 4 4 4 4 5 5 6 5
5 8 8 6 6 6 6 6 6 6 6 6 6 5 3 3 4 5 5 6 7 7 6 6 6 5 5 5 4 4 4 4 5 4 4 4 4 4 4 5 5 5 4
5 6 10 8 6 6 6 6 6 6 6 6 6 6 7 5 6 7 6 6 7 7 7 6 5 5 5 4 4 5 5 5 4 5 4 4 4 4 4 4 4 4 4
5 6 6 6 6 6 6 6 7 7 7 8 7 6 9 6 6 6 6 6 7 6 6 5 5 5 5 5 5 5 5 5 5 4 4 4 4 4 4 4 4 4 5
6 7 7 7 7 9 8 7 7 7 7 7 7 6 6 6 6 6 6 6 6 5 5 5 5 5 5 5 6 6 6 6 5 5 5 5 5 5 5 5 6 5 5
7 8 8 8 7 7 8 8 7 8 8 8 7 7 6 6 7 7 7 6 5 5 5 5 5 6 7 6 5 5 5 5 5 5 6 5 5 5 4 5 5 6 5
7 8 8 8 8 8 8 8 8 8 9 8 8 7 7 7 7 7 6 6 6 6 6 5 5 5 7 8 7 6 7 8 7 5 5 5 6 6 6 6 5 5 5
7 8 7 7 7 7 8 8 8 8 8 8 7 7 7 7 6 6 6 6 5 5 5 5 6 7 7 6 7 8 8 9 9 9 6 5 6 6 6 5 6 5 6
Wind_Direction
202 204 190 181 179 215 243 254 265 264 272 267 263 267 271 283 278 240 258 284 278 278 273 245 260 269 269 265 235 234 212 154 193 273 262 143 144 145 153 183 164 167 175
204 210 194 171 181 216 253 261 264 257 249 259 267 271 271 270 280 292 260 264 256 278 292 309 293 283 246 253 235 233 223 188 172 212 267 26 149 167 165 177 165 161 161
175 194 202 210 221 226 260 277 278 266 253 248 243 260 280 282 274 276 268 265 258 260 272 288 292 318 269 232 206 217 253 218 170 171 223 227 193 176 163 171 150 150 161
149 173 207 226 237 258 264 265 278 287 279 265 262 258 271 292 296 294 292 285 280 280 270 288 320 19 323 296 218 222 225 226 194 186 213 214 206 194 162 165 160 159 165
164 179 231 233 208 252 285 284 282 295 297 288 275 266 256 264 306 336 322 313 306 303 287 225 172 144 117 95 71 274 248 220 207 205 219 208 209 174 183 179 167 171 170
166 192 218 220 222 242 278 290 288 284 285 286 273 264 258 257 259 266 297 312 309 301 290 257 200 174 170 179 164 132 151 198 220 216 218 203 210 193 175 171 165 158 197
141 168 195 206 226 227 257 271 271 271 271 278 285 276 250 228 220 228 245 265 279 282 280 276 271 211 173 193 216 225 225 235 217 203 209 230 211 198 170 174 175 171 185
19 22 264 244 250 243 251 267 264 264 262 257 272 279 272 245 221 221 237 249 264 267 267 259 245 239 224 210 216 211 205 219 220 209 190 209 236 213 183 180 174 154 134
10 354 348 315 275 258 254 261 263 268 269 258 255 256 261 258 227 220 217 240 254 258 254 254 248 231 249 235 232 230 197 209 198 179 171 166 163 153 134 120 134 137 164
353 336 331 307 274 254 252 259 261 262 265 268 266 254 249 253 236 223 214 230 248 253 245 223 209 211 226 215 218 249 227 221 200 195 197 199 198 196 184 166 161 155 158
332 320 316 304 283 265 251 252 261 265 272 270 271 267 257 253 234 220 211 225 246 262 256 236 213 204 213 229 226 225 235 237 220 203 199 199 194 186 191 192 162 156 164
328 313 302 292 291 292 271 261 260 261 269 270 271 276 271 261 237 227 219 224 242 252 261 255 230 214 216 226 231 235 239 240 230 213 201 196 193 192 184 175 163 153 151
322 312 306 302 298 298 289 276 266 261 262 266 267 269 271 267 242 227 222 230 239 245 255 250 244 238 235 232 229 232 229 219 219 216 207 203 193 181 168 158 153 141 134
313 308 307 308 304 304 298 284 276 264 263 268 272 272 271 262 246 232 234 240 241 248 258 264 253 238 237 237 235 230 220 211 208 216 210 200 180 167 174 170 170 164 147
311 311 311 307 300 295 290 284 282 272 262 262 265 269 274 271 260 240 235 238 234 236 239 247 243 237 231 229 220 214 211 209 215 219 207 196 189 183 188 178 168 166 176
311 312 310 309 302 293 290 292 278 273 275 269 263 264 271 268 276 271 256 249 241 234 229 233 235 230 226 224 221 217 212 211 212 215 208 197 193 190 189 184 177 177 181
311 308 303 302 302 296 291 290 294 292 278 272 271 270 266 267 271 269 265 262 250 227 227 232 232 231 228 226 221 217 217 213 210 212 213 200 190 188 183 183 185 182 181
312 308 304 295 295 294 290 287 286 287 292 284 272 265 266 264 262 262 259 256 254 232 230 233 232 230 226 223 220 217 215 208 207 209 213 205 193 189 188 187 186 184 185
309 302 301 298 293 289 285 282 280 280 282 284 286 279 270 272 271 265 249 240 242 239 236 237 235 229 226 222 219 215 212 209 207 205 207 205 196 193 192 190 185 185 185
295 295 298 293 289 287 286 286 285 284 285 287 285 284 284 281 271 261 245 245 248 246 239 237 235 229 222 218 214 208 207 207 206 206 205 206 194 187 191 189 184 182 187
300 300 300 295 287 288 289 288 288 285 282 282 280 279 276 265 259 258 250 245 246 249 246 237 233 228 219 211 209 210 210 209 203 201 198 204 197 188 186 187 192 184 176
303 298 294 292 292 291 291 289 288 288 287 287 286 283 275 267 264 264 259 253 250 249 244 236 231 226 216 209 207 209 211 211 205 199 198 198 192 190 187 185 184 183 179
299 298 298 296 294 293 292 288 286 285 284 282 282 280 272 267 269 270 269 265 258 255 248 235 231 229 222 213 208 205 208 210 203 192 197 199 194 193 189 187 186 180 181
300 299 298 296 294 292 292 291 290 288 287 285 281 278 272 266 269 270 270 268 261 260 254 240 235 233 229 220 211 206 203 198 192 191 192 199 196 192 190 185 182 179 177
294 294 294 293 292 292 292 291 291 291 290 287 285 282 276 269 267 268 269 264 258 255 251 243 237 231 227 228 221 208 193 187 189 191 191 195 196 192 187 184 180 175 175
287 288 288 288 288 289 291 293 293 292 292 290 288 285 281 277 271 269 272 268 258 252 246 241 237 233 227 220 210 197 188 185 184 188 193 195 193 191 186 184 179 181 178